CZ-2C R/B

Last updated on Sat Aug 15 2026 00:02:08 GMT+0000 (Coordinated Universal Time)

1 54039U 22132E 26226.59613085 .00050833 00000+0 28607-3 0 9990 2 54039 97.2887 236.5530 0011219 194.7056 165.3886 15.78998449215148
UTC large
Height (km)
Speed (km/s)
/
Latitude / Longitude
Inclination (degrees)
Orbital Period (minutes)
Azimuth
Elevation
Range (km)
Doppler Factor

Next 0 passes for location: London (51.5072 / 0.1276)

No passes found over London.
CZ-2C R/B